Voltar ao catálogo

OSCAR 23

KITSAT 1

AtivoRádio AmadorLEO
NORAD 22077·PAYLOAD·🇰🇷 South Korea

Lançado Aug 10, 1992 de Guiana Space Centre

Loading…

Próximas Passagens (próximas 24 horas)

TLE

AtualizadoSource: Space-Track

Época: Sep 14, 2026, 12:53 UTC

1 22077U 92052B   26257.53735554 -.00000061  00000-0  52398-5 0  9995
2 22077  66.0830  93.9234 0015526 261.5075 114.9403 12.86615179601182

Acompanhe OSCAR 23 em tempo real com AllMySat

Download on the App Store